CAPE
24 21 17 19 31 16 26 29 27 19 18 15 20 19 20 16 15 14 8 4 2 50 3 2 0 1 0 1 0 0 0 0 9 0 0 0 0 3 1 0 0 0 0 0 0 0 0
23 36 32 33 25 20 16 23 23 13 13 13 19 14 20 13 10 10 5 15 5 8 9 1 3 7 0 0 0 0 0 0 0 0 0 0 3 5 0 0 0 0 0 0 0 1 1
19 25 28 29 27 35 29 26 25 16 21 18 12 5 11 13 16 12 7 0 0 18 11 5 5 0 11 0 0 0 0 0 0 0 2 6 0 5 1 0 0 0 0 0 0 0 0
27 32 34 34 32 16 30 19 19 21 17 17 12 9 10 5 6 2 0 10 1 43 3 8 10 0 1 0 0 0 0 0 0 0 2 1 6 11 2 0 0 0 0 0 0 0 0
22 34 23 13 26 17 15 26 27 21 20 15 1 0 13 11 3 1 0 11 45 3 10 10 2 1 1 0 0 0 0 3 3 1 4 5 9 11 2 0 1 1 0 0 0 0 0
19 15 16 12 16 23 24 19 20 23 22 6 8 0 3 18 6 0 0 11 14 1 4 2 1 3 0 0 0 0 0 0 1 2 8 9 4 2 1 3 0 0 0 0 0 0 0
26 22 21 23 25 23 27 9 39 28 19 29 14 15 27 8 15 0 5 0 1 1 15 0 0 0 0 0 0 0 0 0 3 2 0 2 1 0 0 0 0 0 1 2 0 0 4
49 29 27 29 37 39 27 21 30 28 38 42 43 42 77 82 7 0 33 0 12 10 2 0 7 2 2 0 0 3 0 0 4 1 0 8 1 0 0 7 3 4 5 0 0 0 3
24 33 90 88 44 11 20 28 31 54 79 66 83 128 155 79 0 16 1 12 11 5 0 1 1 1 2 0 0 0 0 4 6 1 2 3 0 3 3 1 1 5 3 0 0 6 8
24 31 73 7 1 3 22 28 52 68 63 83 95 185 142 59 0 0 4 6 21 14 0 0 6 1 2 0 1 4 0 10 3 0 0 0 0 0 3 0 1 2 12 1 0 9 0
55 8 7 11 0 7 17 49 68 65 90 99 101 122 105 46 11 11 0 0 24 7 0 0 3 1 1 0 0 0 5 4 2 2 6 0 6 3 6 10 17 0 3 0 0 0 0
5 3 0 0 3 1 38 55 57 66 76 59 72 72 40 0 9 7 22 5 0 0 0 1 2 4 2 5 20 1 5 0 0 1 0 0 9 0 1 0 0 0 1 0 0 0 0
0 0 0 0 1 25 20 21 42 39 38 41 37 47 53 10 0 14 0 2 0 0 0 1 5 8 1 1 6 2 0 0 2 0 0 0 0 0 1 1 0 0 5 0 0 0 0
5 5 1 22 23 19 20 30 37 31 26 24 13 14 12 8 10 9 0 0 0 0 1 1 0 0 0 5 9 2 9 0 0 0 2 0 0 1 2 16 4 0 0 0 0 0 0
24 13 3 10 18 25 25 25 34 49 21 31 21 8 4 12 9 6 0 0 0 1 3 3 1 2 1 6 1 1 0 0 2 0 0 0 0 0 0 1 0 1 0 0 0 0 0
14 1 2 12 16 14 11 19 40 36 44 25 3 0 3 8 7 0 0 0 1 7 7 1 2 0 0 1 0 0 0 2 1 0 0 2 0 0 0 1 5 1 0 0 0 0 0
7 0 3 7 2 2 8 18 27 25 4 4 3 9 5 10 2 1 0 0 0 0 0 0 0 0 2 0 1 5 2 0 0 0 0 0 0 0 4 2 0 0 0 0 0 0 0
0 0 2 2 5 7 4 10 11 18 0 0 0 0 1 10 0 0 3 0 3 0 0 0 0 0 0 0 0 2 0 0 0 0 0 0 3 5 0 0 0 0 0 0 0 0 0
0 0 3 4 0 0 7 7 4 5 9 0 0 1 1 0 1 0 7 1 1 0 0 0 3 0 0 0 0 1 0 0 0 0 0 0 0 0 0 0 0 0 0 0 0 0 0
0 0 2 7 1 0 3 1 1 0 0 0 0 0 0 0 2 9 1 0 0 0 0 2 0 0 0 0 0 0 0 0 0 0 0 0 0 0 0 0 0 0 0 0 0 0 0
0 0 1 3 2 10 2 3 0 0 0 0 0 1 0 0 0 1 0 0 0 0 2 0 0 0 0 0 0 0 0 0 0 0 0 0 0 0 0 0 0 0 0 0 0 0 0
0 0 3 0 0 5 4 10 0 0 0 0 1 1 0 1 0 1 0 0 1 0 1 7 0 0 0 0 0 0 0 0 0 0 0 0 0 0 0 0 0 0 0 0 0 0 0
0 0 4 3 0 0 1 9 7 2 0 0 4 2 0 0 0 0 1 0 0 0 0 0 0 0 0 0 0 0 0 0 0 0 0 0 0 0 0 0 0 0 0 0 0 0 0
0 0 2 4 0 0 0 2 17 7 2 0 0 0 1 0 0 0 0 0 1 0 1 0 0 0 0 0 0 0 0 0 0 0 0 0 0 0 0 0 0 0 0 0 0 0 0
0 0 0 6 4 0 0 0 11 8 1 1 0 1 1 0 0 1 0 0 0 0 0 0 0 0 0 0 0 0 0 0 0 0 0 0 0 0 0 0 0 0 0 0 0 0 0
0 0 0 5 3 1 0 4 13 4 0 1 1 0 0 0 0 0 1 2 0 1 0 0 0 0 0 0 0 0 0 0 0 0 0 0 0 0 0 0 0 0 0 0 0 0 0
0 0 0 2 2 0 0 0 0 0 0 1 0 0 0 0 0 0 0 0 0 0 0 0 0 0 0 0 0 0 0 0 0 0 0 0 0 0 0 0 0 0 0 0 0 0 0
0 0 0 1 0 4 0 0 0 0 0 0 0 0 0 0 0 0 0 0 0 0 0 0 0 0 0 0 0 0 0 0 0 0 0 0 0 0 0 0 0 0 0 0 0 0 0
0 0 0 0 0 4 0 0 0 0 0 0 0 0 0 0 0 0 0 0 0 0 0 0 0 0 0 0 0 0 0 0 0 0 0 0 0 0 0 0 0 0 0 0 0 0 0
CIN
-1 -0 -0 -0 -0 -0 -1 -1 -1 -1 -1 -1 -0 -1 -0 -0 -0 -0 -0 -0 -0 -1 -0 -0 -0 -0 -0 -0 -0 -0 -0 -0 -0 -0 -0 -0 -0 -0 -2 -0 -0 -3 -0 -0 -0 -0 -0
-0 -0 -0 -0 -1 -0 -1 -0 -0 -1 -0 -0 -1 -1 -0 -1 -0 -0 -0 -0 -0 -0 -0 -0 -0 -0 -0 -0 -0 -0 -0 -0 -0 -0 -0 -0 -1 -1 -0 -0 -0 -0 -0 -0 -0 -1 -0
-0 -1 -0 -0 -0 -0 -0 -0 -0 -0 -1 -1 -1 -0 -0 -1 -1 -0 -0 -0 -0 -10 -0 -0 -0 -0 -0 -0 -0 -0 -0 -0 -0 -0 -0 -1 -0 -1 -2 -1 -0 -0 -0 -0 -0 -0 -0
-1 -0 -1 -0 -1 -0 -0 -0 -0 -0 -1 -0 -0 -1 -0 -0 -1 -0 -0 -0 -0 -4 -0 -0 -0 -0 -0 -0 -0 -0 -0 -0 -0 -0 -2 -5 -3 -2 -1 -0 -0 -0 -0 -0 -0 -0 -0
-1 -0 -1 -0 -0 -0 -0 -0 -0 -0 -0 -0 -4 -0 -0 -0 -0 -0 -0 -1 -46 -0 -0 -0 -0 -1 -0 -0 -0 -0 -0 -0 -1 -6 -3 -1 -4 -0 -0 -0 -0 -0 -0 -0 -0 -5 -0
-1 -0 -0 -0 -0 -0 -0 -0 -1 -1 -0 -0 -1 -0 -8 -0 -0 -0 -0 -0 -28 -0 -0 -2 -9 -0 -0 -0 -0 -0 -0 -0 -0 -2 -3 -2 -0 -1 -0 -0 -0 -0 -0 -0 -0 -3 -0
-0 -1 -0 -1 -1 -1 -0 -1 -0 -0 -0 -0 -0 -6 -18 -0 -1 -0 -9 -5 -0 -0 -0 -0 -0 -0 -0 -0 -0 -0 -0 -0 -0 -1 -0 -0 -0 -0 -0 -0 -0 -0 -0 -0 -0 -0 -4
-0 -0 -0 -0 -0 -0 -1 -0 -1 -3 -2 -1 -0 -2 -16 -15 -0 -0 -0 -0 -0 -0 -0 -0 -1 -0 -1 -0 -0 -0 -0 -0 -0 -0 -1 -0 -1 -0 -0 -0 -0 -1 -0 -0 -0 -0 -2
-0 -0 -0 -0 -0 -0 -0 -1 -1 -0 -0 -0 -0 -0 -0 -35 -0 -3 -2 -0 -1 -5 -0 -1 -1 -1 -3 -0 -0 -2 -0 -9 -2 -2 -0 -0 -0 -8 -1 -3 -1 -0 -0 -0 -0 -8 -2
-0 -0 -0 -0 -0 -2 -0 -0 -2 -0 -0 -0 -0 -0 -0 -30 -0 -0 -2 -17 -3 -0 -0 -0 -1 -1 -2 -0 -1 -0 -0 -2 -0 -1 -0 -0 -0 -0 -4 -1 -0 -3 -3 -1 -0 -1 -0
-0 -0 -0 -0 -0 -8 -1 -0 -0 -0 -0 -0 -0 -0 -0 -17 -0 -0 -0 -0 -1 -0 -0 -0 -1 -1 -0 -0 -0 -2 -3 -1 -1 -0 -1 -0 -0 -8 -0 -1 -0 -0 -0 -2 -0 -0 -0
-1 -0 -0 -0 -0 -0 -0 -0 -0 -0 -3 -1 -11 -1 -7 -0 -4 -3 -6 -9 -3 -0 -0 -0 -3 -5 -0 -1 -0 -3 -0 -0 -0 -0 -0 -0 -2 -0 -0 -0 -0 -3 -1 -0 -0 -0 -0
-0 -0 -0 -0 -0 -0 -1 -0 -0 -0 -0 -0 -24 -22 -6 -0 -0 -3 -1 -0 -0 -0 -0 -0 -0 -1 -0 -0 -1 -0 -0 -0 -0 -1 -0 -0 -0 -0 -0 -0 -0 -0 -1 -0 -0 -0 -0
-8 -0 -0 -0 -0 -1 -0 -0 -1 -1 -0 -0 -0 -0 -0 -0 -2 -0 -0 -0 -0 -0 -1 -3 -0 -0 -17 -6 -1 -2 -0 -1 -0 -0 -0 -0 -0 -0 -2 -0 -0 -1 -0 -0 -0 -0 -0
-0 -0 -0 -0 -1 -0 -0 -0 -0 -0 -2 -0 -2 -1 -3 -1 -2 -1 -0 -0 -0 -0 -0 -1 -1 -2 -4 -1 -9 -1 -0 -0 -0 -0 -0 -0 -0 -1 -1 -7 -0 -4 -6 -0 -0 -0 -0
-0 -0 -0 -1 -1 -0 -0 -8 -1 -0 -0 -5 -7 -1 -0 -5 -2 -1 -0 -0 -2 -0 -5 -13 -1 -1 -0 -1 -0 -0 -0 -0 -0 -0 -0 -1 -0 -0 -0 -8 -16 -6 -0 -0 -0 -0 -0
-0 -0 -0 -0 -1 -0 -0 -0 -0 -0 -5 -10 -7 -0 -2 -7 -1 -0 -0 -0 -0 -0 -0 -0 -0 -0 -3 -0 -2 -3 -2 -0 -0 -0 -0 -0 -0 -0 -14 -14 -0 -0 -0 -0 -0 -0 -0
-0 -0 -0 -0 -0 -0 -0 -0 -0 -0 -0 -0 -0 -0 -13 -2 -0 -0 -0 -0 -0 -0 -0 -0 -0 -0 -0 -0 -0 -3 -3 -0 -0 -0 -0 -0 -1 -6 -1 -0 -0 -0 -0 -0 -0 -0 -0
-0 -0 -0 -0 -0 -0 -0 -0 -0 -0 -0 -1 -0 -0 -0 -0 -0 -0 -0 -0 -0 -0 -0 -5 -1 -0 -0 -0 -0 -1 -0 -0 -0 -0 -0 -0 -0 -0 -0 -0 -0 -0 -0 -0 -0 -0 -0
-0 -0 -0 -0 -0 -0 -0 -0 -0 -0 -0 -0 -0 -0 -0 -3 -3 -0 -0 -0 -0 -0 -0 -7 -0 -0 -0 -0 -0 -0 -0 -0 -0 -0 -0 -0 -0 -0 -0 -0 -0 -0 -0 -0 -0 -0 -0
-0 -0 -0 -0 -0 -0 -0 -0 -0 -0 -0 -0 -0 -0 -2 -0 -0 -1 -0 -1 -0 -0 -15 -0 -0 -0 -0 -0 -0 -0 -0 -0 -0 -0 -0 -0 -0 -0 -0 -0 -0 -0 -0 -0 -0 -0 -0
-0 -0 -0 -0 -0 -0 -0 -0 -0 -0 -0 -0 -0 -3 -0 -3 -3 -0 -0 -0 -2 -0 -1 -5 -0 -0 -0 -0 -0 -0 -0 -0 -0 -0 -0 -0 -0 -0 -0 -0 -0 -0 -0 -0 -0 -0 -0
-0 -0 -0 -0 -0 -0 -1 -0 -0 -0 -3 -0 -4 -9 -0 -0 -0 -0 -0 -0 -1 -1 -0 -0 -0 -5 -0 -0 -0 -0 -0 -0 -0 -0 -0 -0 -0 -0 -0 -0 -0 -0 -0 -0 -0 -0 -0
-0 -0 -0 -0 -0 -0 -0 -1 -0 -0 -0 -0 -1 -1 -1 -0 -0 -0 -0 -0 -5 -2 -0 -0 -0 -0 -0 -0 -0 -0 -0 -0 -0 -0 -0 -0 -0 -0 -0 -0 -0 -0 -0 -0 -0 -0 -0
-0 -0 -0 -0 -0 -0 -0 -2 -0 -0 -0 -1 -0 -0 -2 -0 -0 -1 -0 -0 -0 -0 -0 -0 -0 -0 -0 -0 -0 -0 -0 -0 -0 -0 -0 -0 -0 -0 -0 -0 -0 -0 -0 -0 -0 -0 -0
-0 -0 -0 -0 -0 -0 -0 -0 -2 -0 -0 -0 -4 -0 -0 -0 -0 -0 -1 -3 -1 -1 -0 -0 -0 -0 -0 -0 -0 -0 -0 -0 -0 -0 -0 -0 -0 -0 -0 -0 -0 -0 -0 -0 -0 -0 -0
-0 -0 -0 -0 -0 -0 -0 -0 -3 -0 -0 -4 -0 -0 -0 -0 -0 -0 -0 -0 -15 -0 -0 -0 -0 -0 -0 -0 -0 -0 -0 -0 -0 -0 -0 -0 -0 -0 -0 -0 -0 -0 -0 -0 -0 -0 -0
-0 -0 -0 -0 -0 -0 -0 -0 -0 -0 -0 -0 -0 -0 -0 -0 -0 -0 -0 -0 -0 -0 -0 -0 -0 -0 -0 -0 -0 -0 -0 -0 -0 -0 -0 -0 -0 -0 -0 -0 -0 -0 -0 -0 -0 -0 -0
-0 -0 -0 -0 -0 -3 -0 -0 -0 -0 -0 -0 -0 -0 -0 -0 -0 -0 -0 -0 -0 -0 -0 -0 -1 -0 -0 -1 -0 -0 -0 -0 -0 -0 -0 -0 -0 -0 -0 -0 -0 -0 -0 -0 -0 -0 -0
Wind_Speed
36 36 37 38 38 40 40 39 40 41 42 42 42 43 43 43 43 42 41 37 35 24 14 14 15 13 16 20 21 7 10 13 13 13 16 19 21 24 29 29 32 38 39 41 42 43 45
37 37 37 38 38 38 39 39 40 41 41 42 43 43 44 44 43 42 43 38 39 35 17 15 14 12 19 24 16 8 11 12 13 14 17 19 21 23 29 30 32 31 39 42 42 43 43
35 34 34 35 36 37 39 39 40 41 42 42 43 43 44 45 44 44 43 46 41 29 14 12 12 13 20 19 14 11 11 13 13 14 19 17 19 22 23 28 23 28 37 40 40 40 42
33 34 34 36 35 39 37 39 39 41 42 42 44 44 44 44 44 44 45 45 28 13 10 11 11 13 22 15 11 11 11 13 13 15 16 16 16 20 20 21 29 33 34 38 33 32 34
34 34 35 36 36 37 38 39 39 39 39 40 43 43 41 42 42 42 41 33 10 8 9 10 14 16 22 13 12 10 9 12 13 14 13 12 14 17 16 22 28 23 31 30 33 23 23
34 34 34 35 37 38 38 38 39 37 38 39 40 40 40 41 39 37 34 26 6 9 10 10 16 15 16 14 7 9 11 12 13 12 13 12 13 16 16 18 25 26 26 28 31 25 18
35 33 33 35 36 36 36 38 39 38 37 36 35 37 38 37 35 34 30 21 16 17 16 17 11 15 9 10 9 10 10 10 11 9 11 6 11 15 13 13 18 24 27 29 27 27 19
36 35 33 31 32 34 35 37 37 37 34 32 34 32 31 37 34 31 24 21 19 21 20 21 18 9 9 11 13 8 8 10 9 9 7 11 13 10 4 17 20 24 24 26 28 19 4
42 43 33 32 28 33 34 36 37 36 35 34 30 28 34 32 29 21 21 22 22 20 20 18 12 9 10 12 14 4 6 8 8 7 8 9 10 10 7 13 24 22 22 19 16 13 17
42 41 39 41 37 33 37 37 38 35 34 30 26 9 28 29 22 21 21 20 20 18 16 12 16 21 10 13 11 7 16 14 20 11 15 15 16 15 13 17 18 18 15 17 15 17 13
48 47 46 45 42 38 37 39 39 37 31 24 8 19 21 24 23 19 22 20 15 16 14 13 12 9 9 5 11 22 22 21 20 19 17 15 13 15 21 19 18 20 14 15 15 13 12
51 49 47 46 41 37 39 39 37 26 13 13 15 3 6 18 18 17 16 18 19 17 14 15 17 18 9 26 22 21 20 18 18 17 18 16 15 15 19 19 19 18 14 14 14 13 13
49 49 49 43 38 36 34 17 14 14 11 5 5 2 10 17 17 15 13 18 22 19 17 20 21 14 27 25 24 22 20 18 17 16 16 14 15 18 18 18 19 19 13 14 13 16 13
46 48 43 38 27 14 11 11 11 10 12 17 22 23 19 22 20 17 16 22 19 15 15 16 20 26 21 25 22 21 16 16 17 18 14 11 14 15 18 17 15 16 14 12 12 13 14
44 39 32 20 18 18 17 17 13 17 19 13 6 11 18 20 25 21 19 16 14 15 14 18 22 22 20 21 18 19 15 15 16 20 15 11 10 14 19 15 14 15 13 12 12 12 18
37 35 29 25 19 18 16 16 15 14 12 4 17 22 21 21 27 19 16 15 14 8 19 12 24 18 18 20 18 18 19 10 13 17 17 12 13 13 14 12 16 15 10 11 14 11 18
34 32 28 23 19 15 15 16 17 15 12 14 26 31 22 25 22 17 16 13 11 8 8 12 13 13 16 15 16 16 13 12 9 12 16 13 16 16 15 10 10 10 8 12 14 14 17
32 28 26 24 20 16 14 15 14 14 11 19 27 33 25 16 21 17 13 11 11 13 10 13 13 8 10 13 10 10 12 12 9 11 13 12 15 14 12 14 13 11 6 8 12 9 8
30 26 25 23 19 16 14 13 11 10 9 18 27 29 19 17 19 14 13 13 14 13 13 12 11 10 12 11 13 10 10 12 8 9 13 11 12 12 14 13 9 5 4 7 16 16 4
28 26 23 21 19 16 14 11 9 8 8 15 24 26 20 18 16 14 11 8 12 17 16 15 13 15 13 6 10 14 12 11 9 9 11 12 9 9 8 9 13 6 4 2 6 5 6
26 23 23 21 19 17 13 11 9 7 6 16 20 21 19 19 15 19 22 19 8 12 17 14 13 10 11 10 5 11 12 14 13 9 10 11 10 9 10 10 8 6 3 5 11 6 14
25 21 21 20 19 17 16 15 10 7 6 21 21 20 18 17 15 17 17 18 18 17 16 13 11 12 6 3 8 13 11 8 10 8 8 9 9 10 8 8 8 6 7 6 4 11 20
21 17 17 20 19 18 16 16 15 14 15 22 21 19 18 18 17 15 18 20 20 20 17 14 12 12 7 10 8 11 9 8 8 8 8 9 9 9 8 10 11 10 10 10 11 12 12
19 17 15 16 17 17 15 13 14 15 17 18 18 17 16 17 16 17 19 20 20 20 24 18 13 15 13 14 14 13 9 7 7 7 9 11 10 11 12 13 11 12 12 12 12 14 16
20 15 14 10 14 13 11 9 9 12 14 16 16 15 15 17 16 19 21 22 21 24 24 23 20 17 15 16 18 17 17 17 13 11 11 11 13 14 14 13 13 12 14 14 13 14 15
16 17 13 6 5 11 8 7 10 13 15 16 16 14 14 14 15 17 21 19 22 23 24 22 21 17 16 18 17 17 17 15 15 15 14 14 14 15 15 16 17 17 17 17 16 16 14
16 13 13 13 5 13 29 23 19 18 19 18 18 15 13 14 17 18 18 18 20 21 22 21 20 18 16 16 17 17 16 15 14 14 13 13 14 15 15 16 15 15 16 16 16 16 15
16 17 15 14 17 24 28 24 21 20 20 20 18 14 15 15 18 17 16 17 18 18 20 21 20 19 18 17 17 17 16 15 15 15 14 15 15 17 17 17 16 15 16 16 15 15 15
15 17 20 19 21 24 23 22 20 19 18 17 21 18 13 16 16 16 16 17 17 17 17 19 18 17 17 18 17 16 16 16 15 15 16 16 18 17 17 17 15 15 16 16 15 14 13
Wind_Direction
353 351 349 347 346 343 342 341 339 336 333 331 328 326 324 321 320 315 309 304 303 295 286 303 310 323 325 314 312 349 345 342 339 332 322 311 311 309 297 299 294 286 286 287 287 286 284
353 350 348 346 345 344 343 340 338 337 335 332 329 327 325 324 319 316 310 302 298 296 286 295 302 317 312 306 335 354 337 335 327 328 318 311 312 316 308 303 296 297 291 289 290 286 285
352 351 350 349 348 344 342 340 339 337 336 334 332 329 327 323 320 315 310 296 290 289 274 289 300 310 304 307 331 335 336 331 334 326 316 319 317 313 319 309 314 304 296 295 291 287 285
352 351 350 348 346 345 343 342 340 337 336 335 333 330 329 326 322 317 312 300 286 272 275 291 299 310 302 323 307 324 332 329 336 330 328 325 328 315 314 317 307 300 301 296 303 292 288
352 350 348 347 344 342 341 340 340 340 341 340 337 334 334 328 323 318 316 310 286 260 279 299 298 299 303 325 314 320 332 329 336 337 340 339 331 318 326 311 305 307 301 300 303 305 303
348 346 344 343 342 340 339 338 339 341 340 340 339 337 332 325 329 323 315 316 315 295 286 294 300 297 302 313 340 346 342 338 337 344 341 334 330 322 323 313 301 305 307 306 309 321 309
342 340 338 336 337 339 342 341 339 338 340 343 344 340 333 331 325 305 304 301 282 276 271 274 289 296 323 329 354 343 359 2 357 358 339 351 334 318 327 317 312 313 311 310 316 315 320
336 331 328 328 332 338 342 343 342 341 341 346 345 346 344 313 304 290 284 270 270 268 266 265 271 280 310 318 321 349 14 356 0 355 8 358 324 344 1 322 319 312 311 311 269 238 104
344 342 332 320 337 348 346 346 344 345 344 346 349 350 314 294 292 282 266 261 281 268 257 274 266 278 293 308 317 37 46 23 12 25 10 355 11 96 36 263 257 234 252 229 214 195 168
343 339 338 359 352 350 344 344 345 350 349 355 360 5 293 295 273 284 256 280 274 253 260 270 262 254 278 290 331 30 141 200 185 51 160 184 196 191 154 195 196 215 218 205 198 163 159
354 14 3 0 356 349 346 345 344 348 358 5 280 274 276 289 257 252 257 260 244 227 231 242 245 269 273 25 56 174 184 194 189 194 186 161 155 164 197 207 206 193 239 172 176 208 205
7 6 1 356 356 356 350 348 353 3 291 282 271 238 78 263 246 250 263 238 205 211 220 221 223 222 90 188 190 182 186 208 233 208 199 186 186 179 193 225 208 217 207 183 195 193 168
9 7 5 9 10 9 12 8 312 305 300 299 271 192 226 224 209 236 262 195 188 192 200 192 195 198 159 186 183 173 160 202 194 200 185 185 187 208 186 203 188 189 212 196 162 153 159
12 12 14 17 32 31 12 345 346 331 311 294 282 268 232 209 206 207 198 176 177 190 185 194 186 177 188 179 184 175 188 212 189 188 200 197 192 185 179 198 200 195 194 195 184 161 149
15 20 26 39 41 34 26 24 348 322 314 307 275 177 175 188 182 177 173 175 173 182 190 185 179 176 186 184 183 182 184 209 193 163 175 201 208 177 179 200 192 176 185 204 174 191 144
24 28 41 46 41 31 24 20 8 353 360 61 129 128 138 160 160 167 165 158 167 179 173 207 166 193 194 186 184 180 156 201 206 169 176 197 181 179 180 197 177 173 204 187 163 163 142
30 37 46 50 45 37 31 30 32 37 53 110 122 122 134 150 159 163 150 153 173 201 207 198 191 196 189 197 193 181 179 177 223 216 190 199 181 175 179 185 185 176 177 177 175 165 158
35 42 49 52 50 45 35 34 39 50 69 118 120 120 143 159 146 151 153 160 178 190 209 209 209 218 204 200 221 228 200 192 225 221 190 195 183 177 180 177 173 172 188 183 172 173 163
37 45 50 51 56 55 46 40 43 56 92 126 119 121 144 148 139 150 160 155 156 189 191 202 208 215 206 216 206 218 217 193 230 217 192 211 198 203 191 190 189 221 310 174 154 160 204
38 46 50 53 59 61 56 47 54 68 109 129 119 112 122 131 137 144 164 212 186 141 187 204 205 188 194 244 208 189 196 195 206 214 201 201 211 202 221 219 198 259 317 320 185 354 39
38 45 50 54 60 60 59 55 72 75 114 126 113 110 115 116 118 95 76 104 238 196 192 205 201 207 206 211 239 194 190 176 179 217 215 207 203 204 201 209 224 226 286 352 19 9 45
37 45 48 53 56 57 59 62 75 86 109 102 102 106 106 105 112 107 117 134 154 173 192 194 192 195 209 274 214 190 201 222 210 228 223 226 232 224 238 234 235 309 309 313 323 21 55
38 46 47 48 54 54 55 58 71 83 97 94 96 104 98 96 104 113 121 134 144 167 185 201 209 205 225 202 208 189 206 206 225 237 239 232 259 263 285 251 250 292 296 325 344 351 5
37 42 47 47 49 49 52 55 64 78 89 98 100 105 96 99 105 115 128 136 141 158 162 185 207 202 222 236 213 198 225 236 246 261 256 218 264 294 298 280 265 272 305 319 339 3 17
34 39 43 44 42 40 40 50 70 84 93 103 105 108 102 99 106 116 130 131 137 141 149 156 173 199 240 207 177 173 171 172 181 211 225 229 196 191 201 222 229 272 300 308 319 317 342
36 37 39 31 10 29 27 55 76 91 93 107 107 114 111 113 114 129 130 133 136 143 148 153 166 193 195 167 168 166 165 170 166 165 173 187 186 168 172 171 175 176 179 194 204 196 213
33 41 42 40 318 302 352 32 53 74 82 93 99 114 118 116 123 134 136 140 140 145 149 156 164 168 173 174 170 171 170 174 176 179 179 175 176 181 181 184 183 164 160 166 195 184 144
32 35 42 46 46 320 14 32 49 57 65 66 81 101 106 119 121 133 142 148 153 157 152 153 158 165 170 171 172 171 176 172 179 177 181 181 179 178 182 184 185 167 175 201 151 117 87
26 32 31 40 42 42 45 39 48 43 32 49 35 69 140 92 100 131 142 144 150 161 169 169 164 170 176 174 176 180 179 178 186 175 177 175 176 176 182 175 175 161 155 133 125 78 70